Home > Weather > Kralendijk > Past weeks

Flag for Caribbean Netherlands Past Weather in Kralendijk, Bonaire, Caribbean Netherlands — Yesterday and Last 2 Weeks

Now
90 °F

Passing clouds.


Feels Like: 100 °F
Forecast: N/A
Wind: 17 mph from East

Location: Flamingo Airport - Bonaire

Current Time: Aug 23, 2016 at 5:09:27 PM

Latest Report: Aug 23, 2016 at 3:55 PM


Visibility: N/A

Pressure: 29.83 "Hg

Humidity: 63%

Dew Point: 75 °F

Location of KralendijkLocation

Past Weather in Kralendijk — Graph

°F

Kralendijk Temperature Yesterday

Maximum temperature yesterday: 90 °F (at 10:55 AM)
Minimum temperature yesterday: 82 °F (at 12:55 AM)
Average temperature yesterday: 85 °F

High & Low Weather Summary for the Past Weeks

 TemperatureHumidityPressure
High90 °F (Aug 9, 11:55 AM)84% (Aug 8, 11:55 PM)29.98 "Hg (Aug 8, 11:55 PM)
Low82 °F (Aug 8, 10:55 PM)55% (Aug 12, 2:55 PM)29.80 "Hg (Aug 11, 4:55 PM)
Average85 °F73%29.90 "Hg
* Reported Aug 8 3:55 PM — Aug 23 3:55 PM, Kralendijk, Weather by CustomWeather, © 2016

Note: Actual official high and low records may vary slightly from our data, if they occured in-between our weather recording intervals... More about our weather records

Advertising

Kralendijk Weather History for the Previous 24 Hours

Scroll right to see more
 ConditionsComfort  
Time TempWeatherWind HumidityBarometerVisibility
3:55 PM
Tue, Aug 23
90 °FPassing clouds.17 mph63%29.83 "HgN/A
2:55 PM90 °FScattered clouds.15 mph63%29.86 "HgN/A
1:55 PM90 °FHot.15 mph63%29.86 "HgN/A
12:55 PM90 °FScattered clouds.15 mph63%29.89 "HgN/A
11:55 AM90 °FScattered clouds.16 mph63%29.92 "HgN/A
10:55 AM88 °FScattered clouds.18 mph62%29.92 "HgN/A
9:55 AM88 °FScattered clouds.17 mph66%29.95 "HgN/A
8:55 AM86 °FScattered clouds.17 mph70%29.95 "HgN/A
7:55 AM84 °FPassing clouds.17 mph70%29.92 "HgN/A
6:55 AM82 °FPassing clouds.14 mph79%29.92 "HgN/A
5:55 AM82 °FWarm.16 mph79%29.89 "HgN/A
4:55 AM82 °FPassing clouds.13 mph79%29.89 "HgN/A
3:55 AM82 °FPassing clouds.16 mph79%29.89 "HgN/A
2:55 AM82 °FPassing clouds.16 mph84%29.92 "HgN/A
1:55 AM82 °FClear.14 mph84%29.92 "HgN/A
12:55 AM82 °FPassing clouds.14 mph79%29.95 "HgN/A
11:55 PM
Mon, Aug 22
82 °FPassing clouds.14 mph84%29.95 "HgN/A
10:55 PM82 °FClear.15 mph84%29.95 "HgN/A
9:55 PM82 °FClear.15 mph79%29.92 "HgN/A
8:55 PM82 °FClear.17 mph79%29.92 "HgN/A
7:55 PM84 °FPassing clouds.16 mph74%29.89 "HgN/A
6:55 PM84 °FClear.17 mph70%29.86 "HgN/A
5:55 PM86 °FClear.18 mph70%29.83 "HgN/A
Weather by CustomWeather, © 2016

See weather overviewHow to use our weather pages